Location: Wayah Bald
(35.1806°N, 83.5603°W)
Time: 07:10:11
(UTC-04:00)

Daily predictions for brighter satellites

Satellite Brightness Start Highest point End
(mag) Time Altitude Azimuth Time Altitude Azimuth Time Altitude Azimuth
FENGYUN 3A 3.7 20:57:13 10° SSE 21:02:32 64° ENE 21:07:51 10° N
Cosmos 2278 Rocket 2.5 20:59:15 10° S 21:04:37 45° ESE 21:09:59 10° NE
Atlas Centaur 2 2.2 21:02:36 10° WSW 21:06:05 31° SSW 21:09:16 10° SE
ERS-1 Rocket 4.0 21:04:20 10° SE 21:08:38 29° ENE 21:12:57 10° N
COSMOS 2406 3.4 21:03:35 10° NNW 21:09:20 80° WSW 21:15:00 10° SSE
Cosmos 1356 Rocket 4.3 21:06:58 10° SSW 21:11:07 56° W 21:15:21 10° N
Cosmos 1844 3.8 21:05:33 10° SSW 21:11:18 83° ESE 21:17:08 10° NNE
ISS -1.2 21:09:11 10° W 21:12:07 31° NW 21:15:05 10° NNE
H-2A R/B 3.8 21:10:16 10° ESE 21:12:58 17° ENE 21:15:40 10° NNE
APEX 4.4 21:12:46 10° SSE 21:15:57 27° E 21:19:52 10° NE
Cosmos 2154 Rocket 4.3 21:11:09 10° SSE 21:17:01 46° E 21:22:53 10° NNE
Cosmos 1939 Rocket 4.2 21:15:07 10° ESE 21:18:07 22° ENE 21:21:09 10° NNE
Cosmos 407 Rocket 3.6 21:14:05 10° NNW 21:19:22 69° ENE 21:24:40 10° SSE
Abrixas 2.9 21:18:00 10° SSW 21:20:51 39° SE 21:23:44 10° ENE
Cosmos 2184 Rocket 4.2 21:16:48 10° S 21:22:56 75° W 21:29:09 10° N
COSMOS 2487 3.7 21:20:22 10° N 21:23:28 26° ENE 21:25:58 13° ESE
Cosmos 1238 Rocket 4.0 21:20:52 10° NNE 21:23:53 24° E 21:26:51 12° SE
SPOT 5 4.5 21:23:32 11° ESE 21:27:17 23° ENE 21:31:22 10° NNE
Cosmos 2082 Rocket 3.9 21:23:40 10° NNE 21:27:20 17° NE 21:30:57 10° E
CENTAUR R/B 4.1 21:23:18 10° NW 21:30:52 46° WSW 21:38:41 10° S
Cosmos 1452 Rocket 3.6 21:26:42 10° SSW 21:31:57 84° WNW 21:37:15 10° NNE
Lacrosse 5 3.3 21:32:43 10° SSE 21:35:38 15° ESE 21:38:34 10° E
Cosmos 1184 Rocket 3.1 21:33:37 10° SSE 21:36:48 43° E 21:39:59 10° NNE
Cosmos 1190 Rocket 4.4 21:31:54 10° NNW 21:37:02 63° WSW 21:42:09 10° S
Intercosmos 25 4.4 21:38:00 18° ESE 21:39:01 20° E 21:41:27 10° NE
Cosmos 1674 Rocket 3.9 21:37:07 10° NNW 21:41:32 68° W 21:45:54 10° S
Cosmos 2297 3.9 21:37:51 10° S 21:43:17 48° ESE 21:48:45 10° NNE
H-2A R/B 3.8 21:43:34 10° WSW 21:47:38 50° S 22:09:48 10° ESE
CZ-3A R/B 4.2 21:27:35 10° W 21:47:40 35° SSW 21:51:19 16° SSE
Okean 2 Rocket 3.2 21:47:09 10° SSE 21:51:24 51° E 21:55:40 10° NNE
Cosmos 1606 2.9 21:51:56 10° N 21:55:51 75° W 21:59:20 13° S
Cosmos 1782 Rocket 3.5 21:51:46 10° S 21:56:12 74° E 22:00:41 10° N
CZ-4 DEB 3.8 21:55:36 11° S 21:58:31 44° W 22:01:34 10° NNW
EO 1 Delta rocket 3.9 21:54:37 10° NNE 22:00:14 76° E 22:04:57 10° S
USA 186 4.4 22:00:59 10° SW 22:03:20 19° W 22:05:46 10° NW
Cosmos 1242 Rocket 3.0 22:00:09 10° N 22:03:42 45° E 22:04:46 35° SE
ALOS 4.3 22:00:26 10° SSW 22:04:16 25° W 22:08:08 10° NW
Cosmos 1862 4.2 22:02:06 10° SSW 22:06:04 50° W 22:10:02 10° N
Cosmos 1850 Rocket 4.3 22:01:41 10° N 22:06:53 51° ENE 22:09:25 28° SE
COS B Rocket 3.1 22:04:53 10° N 22:08:40 77° W 22:10:45 22° S
ARGOS 4.2 22:09:05 23° E 22:10:51 28° ENE 22:15:21 10° N
Cosmos 1954 Rocket 4.2 22:05:40 10° NNW 22:10:52 69° WSW 22:14:41 19° S
YAOGAN 6 3.4 22:10:46 30° E 22:10:58 30° ENE 22:14:06 10° N
Lacrosse 5 rocket 1.5 22:08:07 10° SSW 22:11:55 41° SE 22:15:34 10° NE
Nadezhda 3 Rocket 4.2 22:05:55 10° N 22:12:16 75° W 22:18:31 10° S
Cosmos 2218 Rocket 4.3 22:08:10 20° SSE 22:12:24 50° E 22:18:32 10° NNE
OAO 3 Rocket 3.1 22:07:39 10° WSW 22:12:37 78° S 22:15:30 25° E
GPS 2-05 Rocket1 2.9 22:08:54 10° W 22:12:38 86° N 22:13:49 41° E
Cosmos 1408 3.8 22:10:13 10° SSW 22:13:42 42° W 22:17:11 10° N
Cosmos 1975 Rocket 2.9 22:09:38 10° N 22:13:59 82° E 22:16:09 29° SSE
DNEPR-1 R/B 3.7 22:09:26 10° NNW 22:14:33 70° ENE 22:16:17 36° SE
PSLV R/B 3.9 22:16:18 35° NE 22:16:18 35° NE 22:18:40 10° N
Cosmos 1959 Rocket 4.5 22:16:51 23° SSE 22:20:39 58° E 22:26:37 10° NNE
Cosmos 1378 Rocket 4.4 22:17:45 10° NNW 22:21:54 47° W 22:25:11 15° SSW
Cosmos 1023 Rocket 4.5 22:17:53 10° NNW 22:23:01 81° WSW 22:25:37 30° S
CZ-4 SHROUD 3.8 22:23:32 43° NE 22:23:32 43° NE 22:26:08 10° N
Cosmos 1536 Rocket 4.4 22:22:52 10° NNE 22:26:55 33° ENE 22:27:02 32° E
Cosmos 1331 Rocket 4.4 22:27:09 38° ESE 22:27:32 39° ESE 22:32:18 10° NE
Cosmos 1727 Rocket 4.5 22:23:00 10° N 22:28:47 40° E 22:30:27 34° ESE
Cosmos 1741 Rocket 3.9 22:23:53 10° NNW 22:29:07 80° ENE 22:31:03 40° SSE
NOSS 8 (H) 4.5 22:30:35 63° ENE 22:30:35 63° ENE 22:33:47 10° NE
MetOp-A 4.0 22:31:17 37° SSE 22:33:31 81° ENE 22:38:53 10° N
OAO 1 Rocket 4.3 22:31:10 10° W 22:36:30 89° SSE 22:38:33 39° E
Cosmos 1110 Rocket 4.0 22:35:44 44° SSE 22:37:04 57° ESE 22:42:11 10° NNE
Envisat 3.7 22:35:07 21° SSW 22:38:17 50° W 22:43:15 10° NNW
Meteor 1-20 Rocket 4.4 22:39:25 44° ESE 22:40:15 48° E 22:45:33 10° NNE
Cosmos 614 Rocket 3.8 22:36:36 10° NNW 22:41:42 84° WSW 22:43:08 48° S
SEDSat Delta rocket 3.3 22:37:40 10° WSW 22:41:22 47° SSW 22:41:22 47° SSW
SL-8 Rocket 4.1 22:38:03 14° SSW 22:43:31 75° W 22:49:46 10° N
Cosmos 1833 Rocket 2.8 22:38:21 10° NNW 22:43:54 58° ENE 22:45:06 48° ESE
Terra 3.3 22:44:32 22° ENE 22:44:32 22° ENE 22:47:56 10° NNE
USA 245 3.3 22:46:36 62° NNE 22:46:36 62° NNE 22:50:20 10° N
H-2A R/B 3.4 22:46:49 23° SW 22:48:42 35° W 22:52:35 10° NNW
Timation 1 Rocket 4.3 22:49:54 12° SSW 22:55:35 84° WNW 23:01:38 10° NNE
Cosmos 2151 Rocket 4.0 22:56:55 44° SW 22:58:07 62° W 23:02:37 10° N
Meteor 1-25 Rocket 4.2 22:58:34 44° S 23:00:32 90° E 23:06:23 10° N
USA 234 4.3 22:54:54 10° ENE 22:58:06 26° E 22:58:06 26° E
Cosmos 1300 Rocket 4.3 23:04:46 42° NE 23:04:46 42° NE 23:07:57 10° NNE
SPOT 5 4.1 23:02:47 28° SSW 23:05:00 41° W 23:10:03 10° NNW
CZ-4B R/B 3.7 23:02:08 10° N 23:06:58 64° WNW 23:08:19 44° SW
Cosmos 2082 Rocket 2.4 23:06:15 10° NNW 23:11:52 62° WSW 23:12:49 54° SSW
Okean 1 4.5 23:07:59 10° N 23:10:39 37° NNE 23:10:39 37° NNE
Okean 1 Rocket 4.0 23:13:53 40° NNE 23:13:53 40° NNE 23:16:53 10° NNE
Cosmos 1812 4.0 23:12:42 10° N 23:15:11 38° N 23:15:11 38° N
Lacrosse 5 2.1 23:13:00 10° SW 23:18:04 68° NW 23:23:09 10° NE
H-2A R/B 2.2 23:20:50 65° ENE 23:20:50 65° ENE 23:25:51 10° N
Cosmos 1302 Rocket 4.2 23:32:20 69° N 23:32:20 69° N 23:36:58 10° NNE
Meteor 1-13 Rocket 4.4 23:38:21 10° N 23:43:51 74° NNE 23:43:51 74° NNE
ASTEX 1 4.1 23:40:47 10° N 23:44:25 50° N 23:44:25 50° N
Iridium 4 Rocket 4.4 23:44:45 10° N 23:49:23 48° NE 23:49:23 48° NE
ARGOS 4.4 23:50:37 31° WSW 23:50:56 31° W 23:55:40 10° NW
Lacrosse 5 rocket 3.8 23:48:25 10° W 23:51:15 19° NW 23:54:01 10° N
Cosmos 2369 Rocket 2.9 23:55:52 46° NNE 23:55:52 46° NNE 23:59:44 10° NNE
